Location: Lone Wolf Observatory
(41.0360°N, 89.2260°W)
Time: 20:46:21
(UTC-05:00)

Amateur Radio Satellites - All Passes

Search period start: 27 June 2017 20:16
Search period end: 28 June 2017 20:16
Location: Lone Wolf Observatory, 41.0360°N, 89.2260°W

Satellite Date Start Highest point End Downlink Frequencies (MHz)
Time Altitude Azimuth
O/OREOS (USA 219) 27 Jun 20:23:57 20:26:50 17° 100° (E) 20:29:42 437.305
SEEDS 27 Jun 20:25:15 20:29:06 35° 263° (W) 20:32:58 437.485
HO-68 27 Jun 20:27:14 20:33:45 37° 263° (W) 20:40:21 435.675
STRAND 1 27 Jun 20:29:48 20:34:59 83° 104° (ESE) 20:40:08 437.568
DELFI C3 27 Jun 20:40:08 20:42:06 14° 65° (ENE) 20:44:04 145.870
NO-84 27 Jun 20:40:41 20:44:03 31° 128° (SE) 20:47:41 435.350 FM
BEESAT 2 27 Jun 20:44:35 20:47:57 27° 114° (ESE) 20:51:21 435.950
YUBILEINY 27 Jun 20:45:12 20:51:45 24° 80° (E) 20:58:18 435.215
CUTE 1.7 + AOD 2 27 Jun 20:49:35 20:51:37 13° 269° (W) 20:53:38 437.475
EO-88 27 Jun 21:02:24 21:04:34 15° 67° (ENE) 21:06:45 145.990 - 145.960
RS-15 27 Jun 21:03:01 21:15:07 78° 118° (ESE) 21:27:30 29.354- 29.394
AO-73 27 Jun 21:04:25 21:08:54 60° 260° (W) 21:13:27 145.935
AO-85 27 Jun 21:07:57 21:11:40 34° 309° (NW) 21:15:18 145.980
AAUSAT CUBESAT 2 27 Jun 21:09:26 21:12:47 24° 265° (W) 21:16:09 437.432
BEESAT 3 27 Jun 21:16:58 21:20:47 45° 307° (NW) 21:24:40 437.485
CUBEBUG 2 27 Jun 21:26:21 21:28:17 12° 271° (W) 21:30:15 437.445
Oscar 11 27 Jun 21:29:09 21:33:14 40° 262° (W) 21:37:21 .
PCSat 27 Jun 21:35:04 21:40:24 59° 245° (WSW) 21:45:42 145.827
ZACube-1 27 Jun 21:42:09 21:45:42 22° 267° (W) 21:49:19 437.345
O/OREOS (USA 219) 27 Jun 22:01:27 22:05:50 46° 296° (WNW) 22:10:12 437.305
TIGRISAT 27 Jun 22:06:04 22:09:29 20° 93° (E) 22:12:50 435.000
FO-29 27 Jun 22:09:36 22:17:06 46° 97° (E) 22:24:23 435.910
STRAND 1 27 Jun 22:11:07 22:13:26 13° 301° (WNW) 22:15:45 437.568
DELFI C3 27 Jun 22:12:42 22:16:28 45° 261° (W) 22:20:15 145.870
M-CUBED/EXP-1 PRIME 27 Jun 22:14:50 22:18:16 30° 103° (ESE) 22:21:54 437.505
NO-84 27 Jun 22:17:53 22:21:33 37° 327° (NNW) 22:25:30 435.350 FM
BEESAT 2 27 Jun 22:22:08 22:25:37 28° 311° (NW) 22:29:09 435.950
SO-50 27 Jun 22:23:13 22:27:34 44° 52° (NE) 22:31:55 436.795
EO-88 27 Jun 22:34:34 22:37:56 34° 262° (W) 22:41:21 145.990 - 145.960
ESTCUBE 1 27 Jun 22:35:55 22:39:10 20° 66° (ENE) 22:42:25 437.505/2401.250
YUBILEINY 27 Jun 22:38:51 22:47:37 72° 280° (W) 22:56:30 435.215
PRISM 27 Jun 22:47:50 22:51:53 58° 101° (E) 22:55:57 437.425
UNISAT 6 27 Jun 22:48:04 22:52:41 61° 100° (E) 22:57:10 437.425
LO-87 27 Jun 22:48:47 22:52:05 37° 73° (ENE) 22:55:25 145.935 - 145.965
RS-15 27 Jun 23:17:41 23:28:55 39° 323° (NW) 23:40:14 29.354- 29.394
AIST 2D 27 Jun 23:38:56 23:41:48 23° 95° (E) 23:44:39 435.315
EO-79 27 Jun 23:41:50 23:43:51 13° 91° (E) 23:45:50 145.935-145.965
TIGRISAT 27 Jun 23:41:59 23:46:19 39° 289° (WNW) 23:50:32 435.000
M-CUBED/EXP-1 PRIME 27 Jun 23:49:40 23:52:33 21° 296° (WNW) 23:55:35 437.505
DUCHIFAT 1 27 Jun 23:52:31 23:54:42 14° 91° (E) 23:56:52 145.980
FO-29 27 Jun 23:54:45 00:01:55 41° 294° (WNW) 00:09:00 435.910
NO-84 27 Jun 23:57:50 00:00:11 14° 348° (NNW) 00:02:35 435.350 FM
VELOX 1 28 Jun 00:01:37 00:05:38 37° 70° (ENE) 00:09:41 145.980
NANOSAT C BR1 28 Jun 00:01:42 00:04:50 20° 94° (E) 00:07:57 145.865
SPROUT 28 Jun 00:02:49 00:06:48 40° 72° (ENE) 00:10:50 437.525
SO-50 28 Jun 00:04:21 00:07:44 21° 248° (WSW) 00:11:07 436.795
ESTCUBE 1 28 Jun 00:11:27 00:15:40 40° 262° (W) 00:19:54 437.505/2401.250
DX 1 28 Jun 00:14:03 00:16:54 17° 64° (ENE) 00:19:45 434.975-435.025
LO-87 28 Jun 00:24:06 00:25:42 12° 268° (W) 00:27:18 145.935 - 145.965
PRISM 28 Jun 00:24:57 00:26:40 12° 297° (WNW) 00:28:24 437.425
UKube-1 28 Jun 00:26:01 00:28:37 16° 64° (ENE) 00:31:13 .
UNISAT 6 28 Jun 00:26:20 00:28:50 15° 298° (WNW) 00:31:19 437.425
POLYITAN 1 28 Jun 00:41:06 00:45:22 62° 101° (E) 00:49:34 437.675
YUBILEINY 28 Jun 00:41:46 00:46:12 15° 302° (WNW) 00:50:41 435.215
BUGSAT 1 28 Jun 00:51:17 00:54:18 19° 93° (E) 00:57:16 437.445
QB50P2 28 Jun 00:52:05 00:56:23 89° 318° (NW) 01:00:39 145.880/145.840
AIST 2D 28 Jun 01:12:19 01:14:52 19° 291° (WNW) 01:17:23 435.315
EO-79 28 Jun 01:15:45 01:19:55 53° 287° (WNW) 01:24:03 145.935-145.965
50 SAT 28 Jun 01:20:01 01:23:18 50° 260° (W) 01:26:36 437.505
DUCHIFAT 1 28 Jun 01:26:31 01:30:38 49° 287° (WNW) 01:34:43 145.980
Oscar 19 28 Jun 01:31:13 01:35:01 21° 93° (E) 01:38:49 437.125/150
NANOSAT C BR1 28 Jun 01:36:45 01:40:37 34° 290° (WNW) 01:44:27 145.865
NO-84 28 Jun 01:37:04 01:39:18 14° 10° (N) 01:41:32 435.350 FM
RS-15 28 Jun 01:37:15 01:46:21 23° 357° (N) 01:55:20 29.354- 29.394
VELOX 1 28 Jun 01:39:02 01:42:12 19° 266° (W) 01:45:23 145.980
SPROUT 28 Jun 01:40:04 01:42:53 17° 268° (W) 01:45:42 437.525
DX 1 28 Jun 01:48:37 01:52:44 43° 261° (W) 01:56:52 434.975-435.025
UKube-1 28 Jun 02:00:06 02:04:14 48° 260° (W) 02:08:25 .
MOZHAYETS 4 28 Jun 02:02:50 02:03:58 11° 60° (ENE) 02:05:05
POLYITAN 1 28 Jun 02:18:46 02:20:37 13° 297° (WNW) 02:22:25 437.675
BUGSAT 1 28 Jun 02:25:50 02:29:46 36° 289° (WNW) 02:33:38 437.445
ITUPSAT 1 28 Jun 02:44:01 02:48:34 45° 71° (ENE) 02:53:10 437.325
Gurwin Techsat 1B 28 Jun 02:45:13 02:50:32 65° 102° (ESE) 02:55:48 435.225
BEESAT 28 Jun 02:52:01 02:56:40 55° 72° (ENE) 03:01:22 436.000
Oscar 19 28 Jun 03:09:40 03:14:33 46° 290° (WNW) 03:19:25 437.125/150
NO-84 28 Jun 03:14:09 03:18:03 30° 30° (NNE) 03:21:55 435.350 FM
AO-7 28 Jun 03:14:12 03:20:19 22° 93° (E) 03:26:23 .
MOZHAYETS 4 28 Jun 03:35:46 03:40:24 85° 256° (WSW) 03:45:04
ITAMSAT 1 28 Jun 03:53:07 03:57:55 35° 98° (E) 04:02:40 435.822/435.867
RS-15 28 Jun 03:53:17 04:04:09 34° 32° (NNE) 04:14:34 29.354- 29.394
BEESAT 3 28 Jun 03:57:42 03:59:28 12° 40° (NE) 04:01:12 437.485
AO-85 28 Jun 03:58:33 04:01:39 20° 46° (NE) 04:04:52 145.980
ITUPSAT 1 28 Jun 04:23:09 04:26:35 19° 267° (W) 04:30:03 437.325
CUBESAT XI-V 28 Jun 04:24:16 04:28:49 58° 74° (ENE) 04:33:21 437.345
Gurwin Techsat 1B 28 Jun 04:26:33 04:29:55 17° 299° (WNW) 04:33:16 435.225
BEESAT 28 Jun 04:31:56 04:34:46 16° 268° (W) 04:37:38 436.000
KKS-1 28 Jun 04:49:14 04:53:38 75° 75° (ENE) 04:58:05 437.445
NO-84 28 Jun 04:51:35 04:55:50 51° 228° (SW) 04:59:59 435.350 FM
BEESAT 2 28 Jun 05:02:14 05:05:10 19° 45° (NE) 05:08:06 435.950
AO-7 28 Jun 05:05:27 05:13:51 79° 291° (WNW) 05:22:13 .
STARS 28 Jun 05:11:04 05:15:19 53° 73° (ENE) 05:19:37 437.465
ITAMSAT 1 28 Jun 05:32:47 05:37:14 29° 294° (WNW) 05:41:40 435.822/435.867
BEESAT 3 28 Jun 05:33:35 05:37:36 84° 237° (WSW) 05:41:33 437.485
AO-85 28 Jun 05:38:14 05:42:12 45° 242° (WSW) 05:46:26 145.980
DOVE 4 28 Jun 05:39:30 05:43:26 23° 94° (E) 05:47:28 437.250
CUBESAT XI-V 28 Jun 06:04:09 06:06:32 14° 270° (W) 06:08:54 437.345
RS-15 28 Jun 06:06:10 06:18:25 89° 241° (WSW) 06:29:57 29.354- 29.394
STRAND 1 28 Jun 06:09:08 06:12:01 15° 61° (ENE) 06:14:55 437.568
XW-2F 28 Jun 06:23:21 06:26:12 20° 94° (E) 06:29:02 145.980 - 146.000
XW-2D 28 Jun 06:29:09 06:32:22 26° 96° (E) 06:35:32 145.860 - 145.880
O/OREOS (USA 219) 28 Jun 06:32:25 06:36:26 32° 60° (ENE) 06:40:26 437.305
XW-2B 28 Jun 06:38:04 06:41:30 32° 97° (E) 06:44:52 145.730 - 145.750
BEESAT 2 28 Jun 06:39:15 06:43:10 46° 243° (WSW) 06:47:01 435.950
LilacSat-2 28 Jun 06:40:47 06:44:19 37° 98° (E) 06:47:50 437.200
ISS 28 Jun 06:44:03 06:45:39 13° 130° (SE) 06:47:15 437.550
STARS 28 Jun 06:49:44 06:51:58 14° 269° (W) 06:54:13 437.465
XW-2C 28 Jun 06:53:31 06:57:13 52° 100° (E) 07:00:51 145.795 - 145.815
CUTE-I 28 Jun 06:56:14 07:01:25 46° 99° (E) 07:06:34 437.470
YUBILEINY 28 Jun 06:56:52 06:58:56 11° 54° (NE) 07:01:00 435.215
AO-7 28 Jun 06:59:58 07:05:21 19° 311° (NW) 07:10:42 .
KAITUO 1B 28 Jun 07:00:24 07:03:59 47° 99° (E) 07:07:33 145.475/437.950
DOVE 4 28 Jun 07:16:31 07:21:12 43° 288° (WNW) 07:26:06 437.250
Tancredo 1 28 Jun 07:24:11 07:27:10 74° 143° (SE) 07:30:12 437.200
NUDT-PHONESAT 28 Jun 07:31:49 07:35:28 65° 285° (WNW) 07:39:06 437.300
XW-2A 28 Jun 07:36:44 07:38:38 14° 93° (E) 07:40:32 145.665 - 145.685
CUBEBUG 2 28 Jun 07:39:09 07:41:48 15° 90° (E) 07:44:24 437.445
STRAND 1 28 Jun 07:45:27 07:50:34 71° 258° (WSW) 07:55:45 437.568
HO-68 28 Jun 07:54:15 08:01:05 45° 99° (E) 08:07:51 435.675
XW-2F 28 Jun 07:57:12 08:00:18 25° 290° (WNW) 08:03:23 145.980 - 146.000
XW-2D 28 Jun 08:03:34 08:06:23 20° 292° (WNW) 08:09:10 145.860 - 145.880
UWE-3 28 Jun 08:06:18 08:09:15 17° 91° (E) 08:12:07 435.000/436.395/437.385
SEEDS 28 Jun 08:08:45 08:12:35 35° 97° (E) 08:16:25 437.485
O/OREOS (USA 219) 28 Jun 08:12:05 08:15:41 24° 258° (WSW) 08:19:15 437.305
XW-2B 28 Jun 08:12:57 08:15:25 17° 293° (WNW) 08:17:52 145.730 - 145.750
LilacSat-2 28 Jun 08:16:06 08:18:16 15° 294° (WNW) 08:20:26 437.200
ISS 28 Jun 08:18:29 08:21:44 69° 326° (NW) 08:25:01 437.550
RS-15 28 Jun 08:20:41 08:29:04 23° 261° (W) 08:37:13 29.354- 29.394
FO-29 28 Jun 08:23:27 08:27:47 19° 56° (NE) 08:32:25 435.910
XW-2C 28 Jun 08:29:48 08:30:55 11° 296° (WNW) 08:32:03 145.795 - 145.815
CUTE 1.7 + AOD 2 28 Jun 08:31:46 08:35:58 76° 285° (WNW) 08:40:09 437.475
KAITUO 1B 28 Jun 08:36:14 08:37:33 12° 295° (WNW) 08:38:52 145.475/437.950
CUTE-I 28 Jun 08:36:56 08:41:08 24° 296° (WNW) 08:45:20 437.470
YUBILEINY 28 Jun 08:49:16 08:57:59 58° 77° (ENE) 09:06:35 435.215
AAUSAT CUBESAT 2 28 Jun 08:50:32 08:54:32 49° 99° (E) 08:58:32 437.432
AO-73 28 Jun 08:53:03 08:56:45 26° 94° (E) 09:00:21 145.935
Tancredo 1 28 Jun 09:00:45 09:03:02 19° 340° (NNW) 09:05:19 437.200
M-CUBED/EXP-1 PRIME 28 Jun 09:01:20 09:04:17 32° 67° (ENE) 09:07:13 437.505
TIGRISAT 28 Jun 09:04:41 09:07:53 19° 64° (ENE) 09:11:07 435.000
XW-2A 28 Jun 09:08:28 09:11:27 29° 288° (WNW) 09:14:24 145.665 - 145.685
CUBEBUG 2 28 Jun 09:14:10 09:18:45 54° 287° (WNW) 09:23:11 437.445
Oscar 11 28 Jun 09:16:15 09:20:13 35° 97° (E) 09:24:10 .
ZACube-1 28 Jun 09:29:25 09:33:52 75° 101° (E) 09:38:11 437.345
PRISM 28 Jun 09:36:49 09:40:35 39° 71° (ENE) 09:44:22 437.425
UWE-3 28 Jun 09:41:35 09:45:57 45° 288° (WNW) 09:50:10 435.000/436.395/437.385
HO-68 28 Jun 09:42:15 09:48:37 36° 297° (WNW) 09:54:58 435.675
SEEDS 28 Jun 09:45:05 09:48:01 19° 293° (WNW) 09:50:57 437.485
UNISAT 6 28 Jun 09:46:09 09:50:38 52° 73° (ENE) 09:55:12 437.425
DELFI C3 28 Jun 09:50:06 09:53:07 21° 94° (E) 09:56:07 145.870
ISS 28 Jun 09:56:24 09:58:42 17° 344° (NNW) 10:01:01 437.550
EO-88 28 Jun 10:03:50 10:06:25 18° 94° (E) 10:08:59 145.990 - 145.960
FO-29 28 Jun 10:05:38 10:11:47 81° 257° (WSW) 10:18:52 435.910
AAUSAT CUBESAT 2 28 Jun 10:27:24 10:29:34 14° 295° (WNW) 10:31:44 437.432
AO-73 28 Jun 10:29:10 10:32:55 28° 291° (WNW) 10:36:34 145.935
PCSat 28 Jun 10:35:07 10:38:42 18° 105° (ESE) 10:42:17 145.827
EO-79 28 Jun 10:35:37 10:36:27 10° 61° (ENE) 10:37:18 145.935-145.965
M-CUBED/EXP-1 PRIME 28 Jun 10:37:32 10:38:54 12° 262° (W) 10:40:13 437.505
Tancredo 1 28 Jun 10:38:26 10:39:31 11° 0° (N) 10:40:36 437.200
TIGRISAT 28 Jun 10:39:44 10:44:10 47° 261° (W) 10:48:42 435.000
DUCHIFAT 1 28 Jun 10:45:30 10:46:37 11° 62° (ENE) 10:47:43 145.980
YUBILEINY 28 Jun 10:46:54 10:54:12 31° 277° (W) 11:01:29 435.215
Oscar 11 28 Jun 10:52:57 10:56:07 20° 293° (WNW) 10:59:16 .
NANOSAT C BR1 28 Jun 10:54:14 10:56:45 16° 64° (ENE) 10:59:16 145.865
ZACube-1 28 Jun 11:08:15 11:09:28 11° 299° (WNW) 11:10:40 437.345
PRISM 28 Jun 11:13:30 11:16:01 16° 267° (W) 11:18:31 437.425
DELFI C3 28 Jun 11:24:29 11:27:52 28° 290° (WNW) 11:31:16 145.870
UNISAT 6 28 Jun 11:24:49 11:27:38 16° 269° (W) 11:30:29 437.425
POLYITAN 1 28 Jun 11:33:08 11:37:12 44° 72° (ENE) 11:41:18 437.675
ISS 28 Jun 11:34:27 11:36:11 13° 5° (N) 11:37:55 437.550
EO-88 28 Jun 11:37:00 11:40:05 26° 290° (WNW) 11:43:10 145.990 - 145.960
BUGSAT 1 28 Jun 11:41:45 11:43:49 14° 63° (ENE) 11:45:55 437.445
QB50P2 28 Jun 11:44:00 11:48:13 65° 74° (ENE) 11:52:29 145.880/145.840
AIST 2D 28 Jun 11:45:14 11:48:43 54° 261° (W) 11:52:13 435.315
LO-87 28 Jun 11:48:45 11:52:18 48° 99° (E) 11:55:50 145.935 - 145.965
FO-29 28 Jun 11:55:57 11:58:09 12° 277° (W) 12:00:25 435.910
ESTCUBE 1 28 Jun 12:03:39 12:07:53 41° 98° (E) 12:12:07 437.505/2401.250
EO-79 28 Jun 12:07:20 12:11:34 75° 258° (WSW) 12:15:52 145.935-145.965
Tancredo 1 28 Jun 12:13:41 12:15:59 19° 20° (NNE) 12:18:17 437.200
PCSat 28 Jun 12:16:11 12:21:33 62° 302° (WNW) 12:26:58 145.827
DUCHIFAT 1 28 Jun 12:17:27 12:21:40 72° 258° (WSW) 12:25:56 145.980
NANOSAT C BR1 28 Jun 12:27:56 12:32:02 48° 261° (W) 12:36:11 145.865
Gurwin Techsat 1B 28 Jun 12:29:34 12:32:14 14° 59° (ENE) 12:34:54 435.225
SO-50 28 Jun 12:39:29 12:41:45 14° 109° (ESE) 12:44:00 436.795
Oscar 19 28 Jun 12:47:43 12:52:12 31° 67° (ENE) 12:56:40 437.125/150
ISS 28 Jun 13:10:35 13:13:30 28° 25° (NNE) 13:16:24 437.550
POLYITAN 1 28 Jun 13:10:36 13:13:11 16° 268° (W) 13:15:49 437.675
BUGSAT 1 28 Jun 13:14:38 13:18:41 54° 260° (W) 13:22:49 437.445
QB50P2 28 Jun 13:23:29 13:24:25 11° 270° (W) 13:25:21 145.880/145.840
SPROUT 28 Jun 13:23:52 13:28:13 81° 104° (ESE) 13:32:30 437.525
LO-87 28 Jun 13:24:07 13:25:18 11° 295° (WNW) 13:26:28 145.935 - 145.965
VELOX 1 28 Jun 13:27:23 13:31:50 78° 103° (ESE) 13:36:17 145.980
DX 1 28 Jun 13:36:45 13:40:39 30° 97° (E) 13:44:30 434.975-435.025
ESTCUBE 1 28 Jun 13:41:13 13:44:23 19° 295° (WNW) 13:47:34 437.505/2401.250
UKube-1 28 Jun 13:47:18 13:50:58 26° 96° (E) 13:54:36 .
Tancredo 1 28 Jun 13:48:48 13:51:50 72° 218° (SW) 13:54:51 437.200
PCSat 28 Jun 14:03:54 14:06:05 12° 323° (NW) 14:08:15 145.827
Gurwin Techsat 1B 28 Jun 14:06:09 14:11:28 81° 256° (WSW) 14:16:49 435.225
AO-7 28 Jun 14:12:59 14:20:04 33° 57° (ENE) 14:27:12 .
50 SAT 28 Jun 14:14:57 14:18:16 49° 286° (WNW) 14:21:34 437.505
SO-50 28 Jun 14:17:09 14:21:40 65° 305° (NW) 14:26:11 436.795
Oscar 19 28 Jun 14:26:51 14:31:26 32° 263° (W) 14:36:01 437.125/150
ISS 28 Jun 14:46:55 14:50:03 41° 222° (SW) 14:53:10 437.550
ITUPSAT 1 28 Jun 14:47:03 14:48:23 11° 89° (E) 14:49:43 437.325
BEESAT 28 Jun 14:53:48 14:56:15 14° 91° (E) 14:58:39 436.000
VELOX 1 28 Jun 15:06:27 15:07:38 11° 299° (WNW) 15:08:49 145.980
ITAMSAT 1 28 Jun 15:10:46 15:15:49 54° 71° (ENE) 15:20:55 435.822/435.867
DX 1 28 Jun 15:13:08 15:16:40 24° 293° (WNW) 15:20:11 434.975-435.025
UKube-1 28 Jun 15:23:16 15:26:54 27° 292° (WNW) 15:30:32 .
MOZHAYETS 4 28 Jun 15:31:32 15:35:08 22° 94° (E) 15:38:41
SO-50 28 Jun 16:01:37 16:03:00 11° 325° (NW) 16:04:23 436.795
AO-7 28 Jun 16:04:10 16:12:21 61° 257° (WSW) 16:20:38 .
ITUPSAT 1 28 Jun 16:21:56 16:26:44 76° 286° (WNW) 16:31:30 437.325
CUBESAT XI-V 28 Jun 16:22:18 16:24:46 14° 91° (E) 16:27:13 437.345
BEESAT 28 Jun 16:29:40 16:34:24 61° 287° (WNW) 16:39:05 436.000
KKS-1 28 Jun 16:41:41 16:44:06 14° 92° (E) 16:46:31 437.445
CUTE-I 28 Jun 16:43:14 16:44:02 10° 56° (ENE) 16:44:50 437.470
DOVE 4 28 Jun 16:45:55 16:48:48 18° 65° (ENE) 16:51:46 437.250
ITAMSAT 1 28 Jun 16:52:04 16:55:36 18° 268° (W) 16:59:10 435.822/435.867
XW-2F 28 Jun 17:05:56 17:06:59 11° 64° (ENE) 17:08:03 145.980 - 146.000
MOZHAYETS 4 28 Jun 17:08:11 17:12:20 35° 290° (WNW) 17:16:28
XW-2D 28 Jun 17:11:19 17:13:21 14° 66° (ENE) 17:15:22 145.860 - 145.880
XW-2B 28 Jun 17:19:53 17:22:24 17° 67° (ENE) 17:24:53 145.730 - 145.750
LilacSat-2 28 Jun 17:22:57 17:25:47 20° 68° (ENE) 17:28:36 437.200
XW-2C 28 Jun 17:34:47 17:37:57 25° 70° (ENE) 17:41:07 145.795 - 145.815
KAITUO 1B 28 Jun 17:40:31 17:43:29 22° 69° (ENE) 17:46:28 145.475/437.950
CUBESAT XI-V 28 Jun 17:57:58 18:02:28 55° 286° (WNW) 18:06:57 437.345
NUDT-PHONESAT 28 Jun 18:10:24 18:14:02 50° 74° (ENE) 18:17:42 437.300
KKS-1 28 Jun 18:16:35 18:20:58 53° 287° (WNW) 18:25:19 437.445
CUTE-I 28 Jun 18:17:49 18:23:08 75° 74° (ENE) 18:28:29 437.470
DOVE 4 28 Jun 18:22:18 18:26:11 38° 263° (W) 18:30:14 437.250
HO-68 28 Jun 18:22:59 18:29:16 34° 62° (ENE) 18:35:33 435.675
RS-15 28 Jun 18:25:15 18:29:27 12° 93° (E) 18:33:38 29.354- 29.394
STARS 28 Jun 18:36:24 18:40:51 77° 285° (WNW) 18:45:16 437.465
XW-2F 28 Jun 18:36:53 18:40:38 55° 260° (W) 18:44:23 145.980 - 146.000
CUBEBUG 2 28 Jun 18:37:31 18:39:48 14° 62° (ENE) 18:42:06 437.445
XW-2D 28 Jun 18:43:31 18:47:10 42° 261° (W) 18:50:50 145.860 - 145.880
XW-2B 28 Jun 18:52:48 18:56:18 34° 263° (W) 18:59:49 145.730 - 145.750
LilacSat-2 28 Jun 18:56:29 18:59:52 29° 264° (W) 19:03:15 437.200
SEEDS 28 Jun 19:00:23 19:03:48 25° 69° (ENE) 19:07:12 437.485
UWE-3 28 Jun 19:03:24 19:06:02 15° 63° (ENE) 19:08:41 435.000/436.395/437.385
XW-2C 28 Jun 19:09:04 19:12:05 22° 265° (W) 19:15:07 145.795 - 145.815
KAITUO 1B 28 Jun 19:14:17 19:17:23 24° 265° (W) 19:20:29 145.475/437.950
PCSat 28 Jun 19:21:49 19:25:29 18° 43° (NE) 19:29:10 145.827
CUTE 1.7 + AOD 2 28 Jun 19:23:42 19:27:55 73° 76° (ENE) 19:32:10 437.475
BEESAT 3 28 Jun 19:24:20 19:26:46 16° 110° (ESE) 19:29:14 437.485
XW-2A 28 Jun 19:38:40 19:42:05 81° 77° (ENE) 19:45:33 145.665 - 145.685
AAUSAT CUBESAT 2 28 Jun 19:40:26 19:44:04 31° 70° (ENE) 19:47:43 437.432
NUDT-PHONESAT 28 Jun 19:47:31 19:48:13 10° 270° (W) 19:48:55 437.300
AO-73 28 Jun 19:48:14 19:51:43 22° 67° (ENE) 19:55:13 145.935
AO-85 28 Jun 19:52:28 19:56:28 55° 119° (ESE) 20:00:21 145.980
STRAND 1 28 Jun 19:56:12 20:01:02 39° 98° (E) 20:05:50 437.568
YUBILEINY 28 Jun 20:00:47 20:03:11 11° 72° (ENE) 20:05:35 435.215
CUTE-I 28 Jun 20:01:11 20:03:44 13° 270° (W) 20:06:16 437.470
NO-84 28 Jun 20:08:29 20:11:34 25° 126° (SE) 20:14:52 435.350 FM
